Regional Weather Roundup
Issued by NWS

Home | Current Version | Previous Version | Text Only | Print | Product List | Glossary On
Versions: 1 2 3 4 5 6 7 8 9 10 11 12 13 14 15 16 17 18 19 20 21 22 23 24 25 26 27 28 29 30 31 32 33 34 35 36 37 38 39 40 41 42 43 44 45 46 47 48 49 50
000
ASUS45 KABQ 062010
RWRNM
WEATHER ROUNDUP FOR NEW MEXICO
NATIONAL WEATHER SERVICE ALBUQUERQUE NM
100 PM MST FRI MAR 06 2015

NOTE: "FAIR" MEANS FEW OR NO CLOUDS BELOW 12,000 FEET AGL WITH NO
       SIGNIFICANT WEATHER OR OBSTRUCTIONS TO VISION.

      THIS PRODUCT IS RELEASED AS TWO VERSIONS.  ONE VERSION NEAR
      THE TOP OF THE HOUR CONTAINING PRELIMINARY DATA FROM ALBUQUERQUE
      AND OTHER STATIONS.  A FINAL VERSION WITH ADDITIONAL DATA IS
      ISSUED ABOUT 10 MINUTES AFTER THE HOUR.

NMZ501-503-504-510>518-062100-
NORTHWEST PLATEAU/NORTHCENTRAL MOUNTAINS

CITY           SKY/WX    TMP DP  RH WIND       PRES   REMARKS
FARMINGTON     SUNNY     48  17  29 VRB3      30.36F
LOS ALAMOS     SUNNY     47  12  24 CALM      30.37F
SANTA FE       SUNNY     52   8  17 VRB3      30.33F
TAOS           SUNNY     45  16  31 N6        30.37F
ANGEL FIRE     FAIR      36  20  51 CALM      30.35F

$$
NMZ402-403-502-505>509-062100-
WESTCENTRAL MOUNTAINS/SOUTHWEST MOUNTAINS

CITY           SKY/WX    TMP DP  RH WIND       PRES   REMARKS
GALLUP         SUNNY     53  16  23 N7        30.35F
GRANTS         SUNNY     55   4  13 W3        30.35F
SILVER CITY    SUNNY     57   1  10 SE20G25   30.32F

$$
NMZ407-409-411-412-062100-
SOUTHERN DESERTS

CITY           SKY/WX    TMP DP  RH WIND       PRES   REMARKS
LORDSBURG      FAIR      59  14  17 E22G30    30.28F
DEMING         SUNNY     57  16  20 E14       30.31F
LAS CRUCES     SUNNY     56  18  23 E6        30.33F
HOLLOMAN AFB   SUNNY     53  18  24 E3        30.32F
ALAMOGORDO     SUNNY     54  19  26 CALM      30.34F
T OR C         SUNNY     56   7  14 E7        30.32F

$$
NMZ519>523-062100-
CENTRAL VALLEYS/CENTRAL HIGHLANDS

CITY           SKY/WX    TMP DP  RH WIND       PRES   REMARKS
ALBUQUERQUE    SUNNY     53  12  19 CALM      30.35F
DOUBLE EAGLE   SUNNY     52  14  22 CALM      30.36F
MORIARTY ARPT  FAIR      56   8  15 NW3       30.34F
CLINES CORNERS SUNNY     53   8  16 W13       30.33F
BELEN          FAIR      54   9  16 CALM      30.35F
SOCORRO          N/A     57   9  15 NE6       30.34F

$$
NMZ524>526-539-540-062100-
SOUTHCENTRAL MOUNTAINS

CITY           SKY/WX    TMP DP  RH WIND       PRES   REMARKS
RUIDOSO        SUNNY     54   7  15 CALM      30.35F

$$
NMZ527>531-062100-
NORTHEAST HIGHLANDS/NORTHEAST PLAINS

CITY           SKY/WX    TMP DP  RH WIND       PRES   REMARKS
LAS VEGAS      SUNNY     53  15  22 S16       30.31F
RATON          SUNNY     51  17  26 SW10      30.30F
CLAYTON        SUNNY     56  18  22 S5        30.29F

$$
NMZ532>537-062100-
EASTCENTRAL PLAINS

CITY           SKY/WX    TMP DP  RH WIND       PRES   REMARKS
TUCUMCARI      SUNNY     57  22  25 CALM      30.29F
CANNON AFB     SUNNY     53  28  36 SW8       30.32F
CLOVIS AIRPORT SUNNY     54  27  35 SW10      30.33F

$$
NMZ028-029-538-062100-
SOUTHEAST PLAINS

CITY           SKY/WX    TMP DP  RH WIND       PRES   REMARKS
ROSWELL        SUNNY     50  29  44 CALM      30.35F
ARTESIA        SUNNY     50  30  46 CALM      30.36F
CARLSBAD       SUNNY     49  30  48 VRB3      30.36F
HOBBS          SUNNY     54  25  32 S6        30.37F


$$


USA.gov is the U.S. government's official web portal to all federal, state and local government web resources and services.